Tracking 29892 objects as of 21-Nov-2024
HD Live streaming from Space Station
objects crossing your sky now

PSLV R/B

Track PSLV R/B now!
10-day predictions


NORAD ID: 23828
Int'l Code: 1996-017B
Perigee: 800.2 km
Apogee: 848.1 km
Inclination: 99.0 °
Period: 101.2 minutes
Semi major axis: 7195 km
RCS: 6.5184 m2 (large)
Launch date: March 21, 1996
Source: India (IND)
Launch site: SRIHARIKOTA (SRI)

Note: This is a ROCKET BODY
Your satellite tracking list
Your tracking list is empty




NASA's NSSDC Master Catalog

Two Line Element Set (TLE):
1 23828U 96017B   24325.90137950  .00000176  00000-0  99175-4 0  9995
2 23828  99.0415 316.3906 0033280 194.2468 165.7773 14.22462449487576
Source of the keplerian elements: AFSPC